Location: Grand Lincourt
(49.3488°N, 1.8319°E)
Time: 05:54:43
(UTC+00:00)

Daily predictions for brighter satellites

Satellite Brightness Start Highest point End
(mag) Time Altitude Azimuth Time Altitude Azimuth Time Altitude Azimuth
SL-16 R/B 4.0 00:59:05 32° NNE 00:59:05 32° NNE 01:02:43 10° N
SL-16 R/B 4.3 01:06:44 22° N 01:06:44 22° N 01:08:55 10° NNE
ATLAS 5 CENTAUR R/B 4.4 01:40:35 14° NNE 01:40:35 14° NNE 01:41:25 10° NNE
ADEOS II 3.9 01:33:53 10° NNE 01:36:36 28° NE 01:36:36 28° NE
Cosmos 1697 Rocket 4.2 02:08:44 10° NNW 02:13:50 33° NE 02:18:55 10° ESE
Cosmos 1821 Rocket 4.3 02:17:01 62° NNE 02:17:01 62° NNE 02:22:12 10° N
ALOS 4.4 02:13:44 10° NE 02:17:11 20° E 02:17:49 20° ESE
Cosmos 2123 Rocket 4.2 02:18:13 10° N 02:24:26 65° ENE 02:24:57 63° ESE
CZ-2D R/B 3.4 02:23:22 10° N 02:26:25 32° NNW 02:26:25 32° NNW
Resurs 1-4 Rocket 3.5 02:24:47 10° N 02:27:37 29° NNW 02:27:37 29° NNW
Cosmos 1934 Rocket 4.3 02:35:19 59° SE 02:36:11 65° E 02:42:27 10° NNE
SL-16 R/B 4.1 02:44:11 21° NW 02:44:11 21° NW 02:46:20 10° NNW
Cosmos 1932 4.4 02:46:39 72° NW 02:46:39 72° NW 02:53:04 10° NE
SL-16 R/B 4.4 02:48:36 12° NW 02:49:23 13° NNW 02:51:47 10° N
IDEFIX/ARIANE 42P 3.4 02:46:01 10° N 02:49:44 41° NNW 02:49:44 41° NNW
Cosmos 1980 Rocket 3.7 02:48:40 10° NNW 02:53:45 34° NE 02:58:48 10° ESE
USA 305 4.4 02:57:54 29° ESE 02:57:54 29° ESE 03:00:33 10° ENE
MSX 3.9 02:52:31 10° N 02:57:46 60° NW 02:57:46 60° NW
BREEZE-M DEB (TANK) 4.4 03:08:22 32° S 03:08:22 32° S 03:15:25 10° SE
CBERS-1 4.3 03:02:16 10° NNE 03:07:21 63° ESE 03:08:37 47° SSE
IRS-1D 3.4 03:04:41 10° NNE 03:10:02 79° WNW 03:10:11 78° W
Cosmos 1190 Rocket 4.1 03:05:56 10° NNW 03:11:09 73° ENE 03:16:21 10° SSE
BREEZE-M DEB (TANK) 4.0 03:13:25 28° E 03:13:25 28° E 03:14:35 10° E
Cosmos 1633 Rocket 4.0 03:09:28 10° N 03:13:41 45° ENE 03:17:51 10° SSE
ATLAS CENTAUR R/B 3.4 03:12:27 21° SSE 03:14:20 28° ESE 03:18:27 10° ENE
ADEOS II 3.2 03:13:49 10° N 03:17:31 30° NW 03:17:31 30° NW
Cosmos 407 Rocket 3.7 03:15:48 10° NNW 03:27:30 - S 03:20:08 55° WNW
Atlas Centaur 2 4.4 03:21:38 19° S 03:22:00 19° S 03:27:00 10° SE
ATLAS 5 CENTAUR R/B 3.8 03:22:01 13° NNW 03:23:26 15° N 03:26:14 10° NNE
Cosmos 1666 Rocket 3.7 03:21:49 10° N 03:26:18 74° E 03:30:04 14° SSE
Meteor 1-14 Rocket 4.3 03:22:48 10° NNW 03:28:40 60° W 03:30:18 44° SSW
Cosmos 1515 4.5 03:29:06 37° SE 03:30:04 48° E 03:33:41 10° NNE
Cosmos 1328 Rocket 4.5 03:28:13 18° SSE 03:31:10 47° E 03:35:26 10° NNE
USA 307 3.2 03:32:44 50° SSE 03:32:59 51° SE 03:37:02 10° ENE
CZ-2C R/B 2.4 03:30:07 10° NNE 03:35:11 79° ESE 03:37:31 32° S
Cosmos 1833 Rocket 2.7 03:32:50 36° SSW 03:35:12 78° ESE 03:40:53 10° NNE
Cosmos 2360 4.1 03:32:06 10° NNW 03:37:48 73° WSW 03:43:28 10° SSE
FENGYUN 3A 3.6 03:34:34 10° N 03:39:56 68° WNW 03:41:43 42° SW
Cosmos 1151 Rocket 2.8 03:39:14 57° SSW 03:40:05 86° WNW 03:44:23 10° N
Meteor 1-11 Rocket 3.9 03:36:57 10° N 03:42:58 85° ENE 03:48:56 10° SSE
USA 306 2.8 03:44:56 59° SSW 03:45:32 70° SSE 03:49:38 10° ENE
ARIANE 5 R/B 2.8 03:44:21 10° NNE 03:49:22 64° ESE 03:54:19 10° S
Cosmos 2082 Rocket 3.2 03:46:54 10° S 03:52:10 45° ESE 03:57:31 10° NE
Cosmos 2098 Rocket 4.5 03:49:47 10° NNW 03:50:20 14° NNW 03:50:20 14° NNW
Cosmos 1153 Rocket 4.4 03:46:48 10° S 03:52:57 89° W 03:59:13 10° N
Lacrosse 4 Rocket 3.8 03:49:25 10° NNW 03:52:58 24° NE 03:56:33 10° E
RUBIN 8/PSLV 4.5 03:50:05 10° N 03:54:24 72° WNW 03:56:07 36° SSW
Cosmos 2100 Rocket 4.4 03:48:37 10° S 03:54:38 62° E 04:00:43 10° NNE
ALOS 2.3 03:50:20 10° N 03:54:54 55° WNW 03:56:17 40° SW
Cosmos 1470 Rocket 3.6 03:53:11 10° N 03:57:32 77° E 04:01:53 10° SSE
Cosmos 1697 Rocket 2.7 03:52:34 10° NW 03:58:04 53° WSW 04:03:32 10° S
COSMOS 2406 3.5 03:55:00 13° SSW 03:59:58 66° ESE 04:05:36 10° NNE
METEOR-M 4.1 03:54:51 10° NNE 04:00:15 88° WNW 04:05:23 11° SSW
Helios 1B rocket 2.3 03:56:57 10° NNE 04:01:02 76° WNW 04:03:02 29° SSW
Cosmos 676 Rocket 3.9 03:56:11 10° NNW 04:01:24 73° WSW 04:06:37 10° SSE
Cosmos 1356 3.4 04:02:57 53° WNW 04:02:57 53° WNW 04:05:59 10° N
IRS-P3 4.1 03:59:32 10° NNE 04:04:56 88° ESE 04:10:16 10° SSW
CZ-2D R/B 3.6 04:01:55 10° NNE 04:05:52 67° ESE 04:09:50 10° S
ERBS 2.5 04:06:51 42° NNW 04:06:53 42° NNW 04:09:39 10° NE
USA 308 2.8 04:06:20 38° SW 04:07:50 81° SSE 04:12:00 10° ENE
Cosmos 1743 2.6 04:04:08 10° NNW 04:07:54 63° W 04:11:39 10° S
CZ-2C R/B 2.5 04:02:52 10° S 04:08:04 72° WSW 04:13:25 10° NNW
BREEZE-M DEB (TANK) 1.5 04:07:53 61° WSW 04:08:14 80° S 04:12:03 10° E
Cosmos 1624 Rocket 4.0 04:06:30 22° SSW 04:10:01 73° WNW 04:15:23 10° NNE
Cosmos 1536 2.8 04:09:59 10° NNW 04:13:59 57° W 04:17:56 10° S
Cosmos 1441 Rocket 3.0 04:12:34 20° SSW 04:15:04 77° WNW 04:18:51 10° N
Envisat 3.4 04:10:54 10° NNE 04:15:59 66° ESE 04:21:01 10° S
Meteor 1-4 Rocket 2.6 04:13:36 10° NNW 04:17:08 52° W 04:20:41 10° S
Cosmos 1371 Rocket 4.2 04:20:33 20° SW 04:24:05 54° WNW 04:29:14 10° NNE
CZ-2C R/B 4.3 04:20:38 10° NNE 04:24:10 37° E 04:27:43 10° SSE
Cosmos 1346 Rocket 3.1 04:22:51 23° SW 04:24:55 44° WNW 04:28:45 10° N
Cosmos 2322 Rocket 3.8 04:23:14 10° NNW 04:28:29 36° NE 04:33:41 10° ESE
COSMO-SKYMED 1 3.8 04:26:20 10° SE 04:30:30 45° ENE 04:34:39 10° N
H-2A R/B 3.1 04:30:30 10° NNE 04:34:07 62° E 04:37:44 10° S
Cosmos 1459 Rocket 4.0 04:29:15 10° SSW 04:35:35 76° W 04:42:01 10° N
SL-08 R/B 3.4 04:31:12 10° S 04:35:44 52° W 04:40:24 10° NNW
USA 305 2.9 04:33:26 22° W 04:35:59 66° NNW 04:40:06 10° ENE
DELTA 2 DEB (DPAF) 4.5 04:32:52 10° S 04:37:01 40° W 04:41:12 10° NNW
Tsikada Rocket 4.4 04:30:47 10° N 04:37:07 68° ENE 04:43:20 10° SSE
Cosmos 1980 Rocket 2.3 04:32:34 10° NW 04:37:58 50° WSW 04:43:20 10° S
CENTAUR R/B 3.2 04:33:15 10° SSW 04:38:54 57° ESE 04:45:48 10° NE
Cosmos 1869 Rocket 4.1 04:35:16 10° N 04:39:42 63° ENE 04:44:04 10° SSE
Meteor 2-9 Rocket 4.2 04:34:52 10° NNW 04:40:40 76° W 04:46:16 10° S
Meteor 1-29 2.7 04:37:35 10° N 04:40:53 77° WNW 04:44:10 10° SSW
X-37B 1.4 04:42:04 20° SW 04:43:30 34° S 04:46:10 10° ESE
Cosmos 1802 Rocket 4.0 04:37:16 10° S 04:43:40 82° W 04:50:02 10° N
CZ-2C R/B 3.3 04:38:02 10° NNE 04:43:52 88° ESE 04:49:28 10° SSW
Cosmos 2369 4.0 04:39:09 10° NW 04:44:29 42° WSW 04:49:45 10° S
Meteor 1-27 Rocket 3.9 04:39:18 10° SSW 04:44:58 54° WNW 04:50:46 10° N
Cosmos 1242 Rocket 4.4 04:42:01 10° N 04:45:11 32° ENE 04:48:19 10° SE
Cosmos 1850 Rocket 4.0 04:41:04 10° NNW 04:46:25 76° WSW 04:51:44 10° SSE
COSMOS 2455 4.3 04:41:01 10° NNW 04:46:36 37° NE 04:52:09 10° ESE
YAOGAN 6 2.9 04:46:04 10° N 04:49:34 45° WNW 04:53:01 10° SW
Cosmos 1633 Rocket 4.3 04:47:58 10° NW 04:51:08 20° W 04:54:18 10° SW
Cosmos 2278 3.7 04:46:30 10° NNW 04:52:09 69° WSW 04:57:44 10° SSE
DMSP B5D2-2 4.3 04:47:19 10° SSE 04:52:34 78° ENE 04:57:52 10° NNW
ATLAS CENTAUR R/B 1.9 04:48:27 12° WSW 04:52:50 56° NW 04:57:37 10° NE
Cosmos 1725 Rocket 4.1 04:47:12 10° S 04:53:33 88° W 04:59:56 10° N
Cosmos 2056 Rocket 4.2 04:50:11 12° WSW 04:54:25 34° NW 04:59:05 10° N
SL-16 R/B 2.6 04:50:03 10° NNW 04:55:45 69° ENE 05:01:24 10° SE
CZ-4C R/B 3.6 04:51:42 10° S 04:55:46 54° W 05:00:02 10° NNW
NOSS 3-2 (A) 3.6 04:53:43 10° SSW 04:59:10 74° SE 05:05:36 10° NE
Okean 1 3.4 04:56:04 10° SSW 05:00:02 54° WNW 05:04:01 10° N
BREEZE-M DEB (TANK) 3.6 04:59:06 13° W 05:01:32 34° SSW 05:08:14 10° SE
NOAA 11 4.3 04:56:10 10° NNE 05:01:42 88° ESE 05:07:10 10° SSW
Cosmos 1933 Rocket 4.0 04:58:22 10° NNW 05:02:33 40° W 05:06:40 10° SSW
Cosmos 44 Rocket 3.2 04:58:19 10° SW 05:03:01 67° NW 05:07:43 10° NE
Cosmos 1461 3.4 05:00:45 10° SSW 05:04:41 60° SE 05:08:49 10° NE
Cosmos 2173 Rocket 4.3 05:00:41 10° SW 05:06:31 45° WNW 05:12:21 10° N
Cosmos 1484 Rocket 3.8 05:04:22 10° N 05:07:48 28° WNW 05:11:11 10° SW
GP-B 3.5 05:04:39 10° SSW 05:08:51 42° W 05:13:05 10° NNW
ATLAS 5 CENTAUR R/B 4.0 05:06:14 10° NNW 05:09:44 20° NNE 05:13:41 10° ENE
Spot 4 Rocket 4.2 05:06:26 10° N 05:11:27 53° WNW 05:16:25 10° SW
SJ-6F 4.4 05:07:27 10° N 05:11:37 74° WNW 05:15:45 10° SSW
USA 307 3.2 05:08:20 10° W 05:12:26 55° NNW 05:16:32 10° ENE
CZ-2C R/B 4.0 05:09:26 10° NNW 05:12:45 18° WNW 05:16:01 10° W
PSLV R/B 3.6 05:08:56 10° N 05:13:14 63° WNW 05:17:28 10° SSW
Cosmos 1741 Rocket 4.3 05:09:52 10° NNW 05:14:52 47° WSW 05:19:50 10° S
Orbus 7S? 4.3 05:12:46 10° W 05:16:12 54° NNW 05:23:31 10° ENE
Meteor 1-31 Rocket 4.3 05:12:54 10° NNE 05:16:32 41° E 05:20:11 10° S
Cosmos 1733 4.2 05:12:57 10° N 05:16:37 52° ENE 05:20:15 10° SSE
OPS 6432 4.2 05:14:40 10° NW 05:17:38 87° NE 05:20:53 10° SE
SKYMED 2 3.6 05:14:13 10° S 05:18:31 62° W 05:22:50 10° NNW
Cosmos 1833 Rocket 3.9 05:15:11 10° W 05:19:46 25° NW 05:24:24 10° NNE
CZ-4B R/B 3.7 05:14:41 10° NNE 05:19:56 89° WNW 05:25:13 10° SSW
Cosmos 2333 Rocket 3.7 05:16:39 10° NNW 05:22:01 39° NE 05:27:19 10° ESE
CZ-3 R/B 4.2 05:15:25 10° WSW 05:27:46 22° SSW 05:33:30 10° SSE
BREEZE M DEB (TANK) 3.9 05:17:41 10° W 05:33:30 85° SSW 05:37:31 10° ESE
